Regional Weather Roundup
Issued by NWS

Home | Current Version | Previous Version | Graphics & Text | Print | Product List | Glossary On
Versions: 1 2 3 4 5 6 7 8 9 10 11 12 13 14 15 16 17 18 19 20 21 22 23 24 25 26 27 28 29 30 31 32 33 34 35 36 37 38 39 40 41 42 43 44 45 46 47 48 49 50
000
ASUS43 KTOP 281259
RWRKS

WEATHER ROUNDUP FOR KANSAS
NATIONAL WEATHER SERVICE GOODLAND KS
800 AM CDT FRI AUG 28 2015

NOTE:  "FAIR" INDICATES FEW OR NO CLOUDS BELOW 12,000 FEET WITH NO
SIGNIFICANT WEATHER AND/OR OBSTRUCTIONS TO VISIBILITY.

KSZ001>006-013>018-027>032-041>047-281400-
NORTHWEST KANSAS

CITY           SKY/WX    TMP DP  RH WIND       PRES   REMARKS
GOODLAND       CLEAR     60  56  86 W8        30.05R
HAYS           SUNNY     70  59  68 NW12      29.92R
HILL CITY      CLEAR     68  64  87 W7        29.94R
RUSSELL        SUNNY     70  67  90 W7        29.90R
$$

KSZ061>065-074>080-084>089-281400-
SOUTHWEST KANSAS

CITY           SKY/WX    TMP DP  RH WIND       PRES   REMARKS
DODGE CITY     PTCLDY    68  64  87 SW7       29.98R
ELKHART          N/A     66  56  70 NW7         N/A
GARDEN CITY    CLEAR     66  62  87 NW7       30.00R
GREAT BEND     SUNNY     72  64  78 SW12      29.90S
LIBERAL        PTCLDY    70  63  78 W5        30.03R
$$

KSZ066>073-081>083-090>101-281400-
SOUTHEAST KANSAS

CITY           SKY/WX    TMP DP  RH WIND       PRES   REMARKS
CHANUTE        CLOUDY    68  65  90 S13       29.98S
COFFEYVILLE    CLOUDY    67  65  93 S12       29.99S
HUTCHINSON     PTSUNNY   73  65  75 S12       29.91R
WICHITA INTL   CLOUDY    72  67  84 S15       29.93S
WICHITA JABRA  CLOUDY    70  67  90 S13       29.94R
WICHITA MCCONL CLOUDY    70  66  88 S14       29.93F
WINFIELD       CLOUDY    70  66  87 S8        29.96S
$$

KSZ007>012-019>026-033>040-048>060-102>105-281400-
NORTHEAST KANSAS

CITY           SKY/WX    TMP DP  RH WIND       PRES   REMARKS
CONCORDIA      CLOUDY    71  66  84 S12       29.88R
EMPORIA        CLOUDY    69  65  86 CALM      29.98R
LAWRENCE       CLOUDY    69  64  84 S7        29.95S
MANHATTAN      CLOUDY    72  67  84 SW9       29.89S
OLATHE IND     CLOUDY    68  64  87 S12       29.97R
OLATHE EXE     CLOUDY    67  63  87 S12       29.96S
SALINA         MOSUNNY   73  66  78 S8        29.89R
TOPEKA BILLARD LGT RAIN  70  66  87 S10       29.93R
TOPEKA FORBES  RAIN      69  65  86 S10       29.94R FOG
$$



USA.gov is the U.S. government's official web portal to all federal, state and local government web resources and services.